When you browse on this site, cookies collect data to enhance your experience and personalize the content and advertising you see.
Visit our Privacy Policy to learn more. By continuing to use the site, you agree to this use of cookies and data.
EN

Hourly Weather Batonyterenye

Today, 3 July, Friday

Time Temperature Precipitation Wind Pressure Humidity
00:00 +20°C° 0 mm 1 mps 725 mmHg 91%
01:00 +19°C° 0 mm 1 mps 726 mmHg 92%
02:00 +19°C° 0.1 mm 1 mps 726 mmHg 93%
03:00 +18°C° 0.1 mm 1 mps 726 mmHg 93%
04:00 +18°C° 0.1 mm 1 mps 725 mmHg 94%
05:00 +19°C° 0.1 mm 1 mps 726 mmHg 91%
06:00 +21°C° 0.1 mm 1 mps 726 mmHg 88%
07:00 +22°C° 0 mm 1 mps 727 mmHg 82%
08:00 +23°C° 0.3 mm 1 mps 727 mmHg 77%
09:00 +25°C° 0.3 mm 1 mps 727 mmHg 73%
10:00 +26°C° 0.3 mm 2 mps 727 mmHg 68%
11:00 +26°C° 0.6 mm 2 mps 727 mmHg 66%
12:00 +27°C° 0.6 mm 2 mps 727 mmHg 65%
13:00 +28°C° 0 mm 2 mps 728 mmHg 57%
14:00 +27°C° 0.7 mm 3 mps 728 mmHg 62%
15:00 +26°C° 0.7 mm 3 mps 728 mmHg 66%
16:00 +25°C° 0.7 mm 3 mps 727 mmHg 71%
17:00 +24°C° 0.3 mm 3 mps 728 mmHg 75%
18:00 +21°C° 0.3 mm 2 mps 728 mmHg 80%
19:00 +20°C° 0.3 mm 2 mps 728 mmHg 85%
20:00 +19°C° 0.5 mm 2 mps 728 mmHg 87%
21:00 +19°C° 0.5 mm 1 mps 728 mmHg 88%
22:00 +18°C° 0.5 mm 1 mps 729 mmHg 90%
23:00 +18°C° 0.1 mm 1 mps 729 mmHg 91%

Tomorrow, 4 July, Saturday

Time Temperature Precipitation Wind Pressure Humidity
00:00 +16°C° 0.1 mm 1 mps 729 mmHg 91%
01:00 +16°C° 0.1 mm 1 mps 729 mmHg 92%
02:00 +16°C° 0 mm 1 mps 729 mmHg 92%
03:00 +16°C° 0 mm 2 mps 729 mmHg 91%
04:00 +16°C° 0 mm 2 mps 729 mmHg 91%
05:00 +18°C° 0 mm 1 mps 729 mmHg 88%
06:00 +19°C° 0 mm 1 mps 730 mmHg 86%
07:00 +20°C° 0 mm 1 mps 730 mmHg 84%
08:00 +21°C° 0 mm 1 mps 730 mmHg 80%
09:00 +21°C° 0 mm 1 mps 730 mmHg 76%
10:00 +22°C° 0 mm 1 mps 731 mmHg 73%
11:00 +24°C° 0 mm 1 mps 730 mmHg 67%
12:00 +25°C° 0 mm 1 mps 730 mmHg 61%
13:00 +27°C° 0 mm 1 mps 730 mmHg 54%
14:00 +27°C° 0 mm 2 mps 730 mmHg 57%
15:00 +26°C° 0 mm 2 mps 730 mmHg 59%
16:00 +26°C° 0 mm 2 mps 730 mmHg 62%
17:00 +25°C° 0.1 mm 2 mps 730 mmHg 68%
18:00 +24°C° 0.1 mm 1 mps 729 mmHg 75%
19:00 +22°C° 0.1 mm 1 mps 729 mmHg 81%
20:00 +21°C° 0 mm 1 mps 729 mmHg 83%
21:00 +20°C° 0 mm 1 mps 730 mmHg 85%
22:00 +19°C° 0 mm 1 mps 730 mmHg 87%
23:00 +18°C° 0 mm 1 mps 730 mmHg 88%

Day after tomorrow, 5 July, Sunday

Time Temperature Precipitation Wind Pressure Humidity
00:00 +18°C° 0 mm 1 mps 730 mmHg 88%
01:00 +18°C° 0 mm 1 mps 730 mmHg 89%
02:00 +16°C° 0 mm 1 mps 730 mmHg 90%
03:00 +16°C° 0 mm 1 mps 730 mmHg 91%
04:00 +16°C° 0 mm 1 mps 730 mmHg 92%
05:00 +18°C° 0 mm 1 mps 730 mmHg 87%
06:00 +20°C° 0 mm 1 mps 730 mmHg 82%
07:00 +22°C° 0 mm 1 mps 730 mmHg 77%
08:00 +23°C° 0 mm 1 mps 731 mmHg 71%
09:00 +25°C° 0 mm 1 mps 731 mmHg 64%
10:00 +26°C° 0 mm 1 mps 731 mmHg 58%
11:00 +27°C° 0 mm 1 mps 731 mmHg 54%
12:00 +27°C° 0 mm 1 mps 730 mmHg 51%
13:00 +28°C° 0 mm 2 mps 730 mmHg 48%
14:00 +28°C° 0 mm 2 mps 730 mmHg 50%
15:00 +28°C° 0 mm 2 mps 729 mmHg 52%
16:00 +28°C° 0 mm 2 mps 729 mmHg 54%
17:00 +26°C° 0 mm 2 mps 729 mmHg 62%
18:00 +24°C° 0 mm 2 mps 729 mmHg 70%
19:00 +23°C° 0 mm 1 mps 729 mmHg 78%
20:00 +22°C° 0 mm 1 mps 729 mmHg 80%
21:00 +21°C° 0 mm 1 mps 729 mmHg 83%
22:00 +18°C° 0 mm 0 mps 729 mmHg 85%
23:00 +17°C° 0 mm 0 mps 728 mmHg 86%

6 July, Monday

Time Temperature Precipitation Wind Pressure Humidity
00:00 +19°C° 0 mm 1 mps 728 mmHg 87%
01:00 +19°C° 0 mm 1 mps 728 mmHg 88%
02:00 +19°C° 0 mm 1 mps 728 mmHg 89%
03:00 +18°C° 0 mm 1 mps 727 mmHg 90%
04:00 +18°C° 0 mm 1 mps 727 mmHg 91%
05:00 +18°C° 0 mm 0 mps 727 mmHg 86%
06:00 +19°C° 0 mm 0 mps 728 mmHg 81%
07:00 +21°C° 0 mm 0 mps 728 mmHg 76%
08:00 +23°C° 0 mm 0 mps 728 mmHg 70%
09:00 +26°C° 0 mm 1 mps 728 mmHg 65%
10:00 +28°C° 0 mm 1 mps 728 mmHg 60%
11:00 +28°C° 0 mm 1 mps 727 mmHg 58%
12:00 +29°C° 0 mm 2 mps 727 mmHg 55%
13:00 +29°C° 0 mm 2 mps 726 mmHg 53%
14:00 +29°C° 0.3 mm 2 mps 726 mmHg 57%
15:00 +28°C° 0.3 mm 3 mps 726 mmHg 61%
16:00 +28°C° 0.3 mm 3 mps 726 mmHg 66%
17:00 +26°C° 0.1 mm 3 mps 726 mmHg 70%
18:00 +25°C° 0.1 mm 3 mps 725 mmHg 75%
19:00 +24°C° 0.1 mm 3 mps 725 mmHg 80%
20:00 +21°C° 0 mm 2 mps 726 mmHg 81%
21:00 +20°C° 0 mm 2 mps 726 mmHg 83%
22:00 +19°C° 0 mm 2 mps 726 mmHg 85%
23:00 +19°C° 0.1 mm 2 mps 726 mmHg 85%

7 July, Tuesday

Time Temperature Precipitation Wind Pressure Humidity
00:00 +18°C° 0.1 mm 2 mps 727 mmHg 86%
01:00 +18°C° 0.1 mm 2 mps 727 mmHg 87%
02:00 +17°C° 0.5 mm 2 mps 727 mmHg 88%
03:00 +17°C° 0.5 mm 2 mps 728 mmHg 88%
04:00 +17°C° 0.5 mm 2 mps 728 mmHg 89%
05:00 +17°C° 0 mm 2 mps 728 mmHg 86%
06:00 +17°C° 0 mm 2 mps 728 mmHg 83%
07:00 +17°C° 0 mm 2 mps 729 mmHg 81%
08:00 +18°C° 0 mm 2 mps 729 mmHg 75%
09:00 +19°C° 0 mm 2 mps 729 mmHg 70%
10:00 +20°C° 0 mm 2 mps 730 mmHg 64%
11:00 +21°C° 0 mm 2 mps 730 mmHg 60%
12:00 +23°C° 0 mm 2 mps 730 mmHg 55%
13:00 +24°C° 0 mm 2 mps 730 mmHg 50%
14:00 +24°C° 0 mm 2 mps 730 mmHg 51%
15:00 +24°C° 0 mm 2 mps 730 mmHg 51%
16:00 +24°C° 0 mm 2 mps 730 mmHg 52%
17:00 +21°C° 0 mm 2 mps 730 mmHg 59%
18:00 +19°C° 0 mm 2 mps 730 mmHg 67%
19:00 +19°C° 0 mm 1 mps 730 mmHg 74%
20:00 +18°C° 0 mm 1 mps 730 mmHg 75%
21:00 +16°C° 0 mm 1 mps 731 mmHg 75%
22:00 +15°C° 0 mm 1 mps 731 mmHg 75%
23:00 +15°C° 0 mm 1 mps 731 mmHg 77%

8 July, Wednesday

Time Temperature Precipitation Wind Pressure Humidity
00:00 +14°C° 0 mm 1 mps 731 mmHg 79%
01:00 +13°C° 0 mm 0 mps 731 mmHg 81%
02:00 +12°C° 0 mm 0 mps 731 mmHg 81%
03:00 +12°C° 0 mm 0 mps 731 mmHg 82%
04:00 +12°C° 0 mm 0 mps 731 mmHg 83%
05:00 +13°C° 0 mm 0 mps 732 mmHg 78%
06:00 +16°C° 0 mm 1 mps 732 mmHg 74%
07:00 +18°C° 0 mm 1 mps 732 mmHg 70%
08:00 +19°C° 0 mm 1 mps 733 mmHg 65%
09:00 +19°C° 0 mm 2 mps 733 mmHg 61%
10:00 +21°C° 0 mm 2 mps 733 mmHg 56%
11:00 +21°C° 0 mm 2 mps 733 mmHg 53%
12:00 +23°C° 0 mm 2 mps 733 mmHg 50%
13:00 +24°C° 0 mm 2 mps 733 mmHg 46%
14:00 +24°C° 0 mm 2 mps 733 mmHg 48%
15:00 +24°C° 0 mm 2 mps 733 mmHg 49%
16:00 +24°C° 0 mm 3 mps 733 mmHg 50%
17:00 +21°C° 0 mm 2 mps 732 mmHg 58%
18:00 +19°C° 0 mm 2 mps 732 mmHg 65%
19:00 +18°C° 0 mm 2 mps 732 mmHg 73%
20:00 +18°C° 0 mm 1 mps 733 mmHg 75%
21:00 +15°C° 0 mm 1 mps 733 mmHg 77%
22:00 +14°C° 0 mm 1 mps 733 mmHg 79%
23:00 +14°C° 0 mm 1 mps 733 mmHg 81%
Show more